Location: *
(46.1333°S, 161.2167°W)
Time: 04:37:29
(UTC+00:00)

Cosmos 2026 Rocket - Pass Details

Date: 15 July 2020
Orbit: 938 x 1002 km, 82.9° (Epoch: 10 August)

Event Time Altitude Azimuth Distance (km) Brightness Sun altitude
Rises 15:43:33 0° 357° (N) 3,609 7.0 -26.7°
Reaches altitude 10° 15:46:00 10° 358° (N) 2,678 6.3 -26.3°
Maximum altitude 15:52:08 81° 84° (E) 987 4.0 -25.2°
Drops below altitude 10° 15:58:27 10° 170° (S) 2,753 6.4 -24.2°
Sets 16:01:00 0° 170° (S) 3,717 7.1 -23.7°
